This is the latest recevied weather packets stored in our database for station/object K7MT-WX. If no packets are shown the sender has not sent any weather packets the latest 10 day(s).
| Time | Temp. | Humidity | Pressure | Rain* | Wind** | Luminosity | Snow |
|---|---|---|---|---|---|---|---|
| 1777480989 | 11.11° C | 51% | 1022 hPa | 0 mm | - | - | - |
| 1777480089 | 10.56° C | 61% | 1022.1 hPa | 0 mm | - | - | - |
| 1777479189 | 10° C | 61% | 1022.1 hPa | 0 mm | - | - | - |
| 1777478289 | 9.44° C | 64% | 1022.2 hPa | 0 mm | - | - | - |
| 1777477389 | 8.33° C | 68% | 1022.2 hPa | 0 mm | - | - | - |
| 1777476489 | 7.78° C | 67% | 1022.3 hPa | 0 mm | - | - | - |
| 1777475589 | 7.78° C | 69% | 1022.3 hPa | 0 mm | - | - | - |
| 1777474689 | 7.22° C | 71% | 1022.3 hPa | 0 mm | - | - | - |
| 1777473789 | 6.11° C | 72% | 1022.2 hPa | 0 mm | - | - | - |
| 1777472889 | 5° C | 80% | 1022.2 hPa | 0 mm | - | - | - |
| 1777471989 | 4.44° C | 80% | 1022.1 hPa | 0 mm | - | - | - |
| 1777471059 | 3.33° C | 81% | 1022 hPa | 0 mm | - | - | - |
| 1777470159 | 2.78° C | 83% | 1021.9 hPa | 0 mm | - | - | - |
| 1777469259 | 2.22° C | 85% | 1021.8 hPa | 0 mm | - | - | - |
| 1777468359 | 1.67° C | 86% | 1021.7 hPa | 0 mm | - | - | - |
| 1777467459 | 1.11° C | 86% | 1021.6 hPa | 0 mm | - | - | - |
| 1777466559 | 1.11° C | 86% | 1021.4 hPa | 0 mm | - | - | - |
| 1777465659 | 0.56° C | 87% | 1021.4 hPa | 0 mm | - | - | - |
| 1777464759 | 0.56° C | 87% | 1021.1 hPa | 0 mm | - | - | - |
| 1777463829 | 0.56° C | 87% | 1021.1 hPa | 0 mm | - | - | - |
| 1777462899 | 0.56° C | 87% | 1021.1 hPa | 0 mm | - | - | - |
| 1777461999 | 0.56° C | 87% | 1021 hPa | 0 mm | - | - | - |
| 1777461069 | 0° C | 87% | 1021 hPa | 0 mm | - | - | - |
| 1777460169 | 0° C | 87% | 1021 hPa | 0 mm | - | - | - |
| 1777459269 | -0.56° C | 88% | 1020.8 hPa | 0 mm | - | - | - |
* Rain latest hour (hover to see other rain measurements)
** Current wind speed in m/s (hover to see current wind gust speed)